Starlink 31331

operational
NORAD ID: 58946 Int'l Des: 2024-027 Owner: SPXS Country: US Constellation: starlink
LEOCIRCULAR

Starlink 31331について

説明を読み込み中...

リアルタイム位置

3D地球を読み込み中...

次回通過

高度履歴

Altitude vs Time

uPlot chart will show altitude changes over time

軌道要素

1 58946U 24027R 25260.64365741 .00000042 00000-0 13541-4 0 9992
2 58946 53.1628 33.4421 0001223 83.9934 276.1206 15.30195533 90839
Epoch: Sep 17, 2025 • Age: 25 hours

現在のステータス

高度 489.9 km
速度 7.62 km/s
衛星直下点 -42.02°S, 13.17°E
打ち上げ日 Feb 10, 2024
運用期間 1.6 years
タイプ internet

技術仕様

分類 Payload
質量 730.00 kg
乾燥質量 700.00 kg
総質量 730.00 kg
長さ 0.30 m
直径 4.10 m
スパン 29.00 m
形状 Box + pan
製造者 SPXS
バスタイプ Starlink V2M
フェーズステータス In Orbit
所有者/国 SPXS/US

大規模コンステレーション

Loading constellations...